Regional Weather Roundup
Issued by NWS

Home | Current Version | Previous Version | Text Only | Print | Product List | Glossary Off
Versions: 1 2 3 4 5 6 7 8 9 10 11 12 13 14 15 16 17 18 19 20 21 22 23 24 25 26 27 28 29 30 31 32 33 34 35 36 37 38 39 40 41 42 43 44 45 46 47 48 49 50

000
ASUS43 KLOT 190106
RWRIL

ILLINOIS REGIONAL WEATHER ROUNDUP
NATIONAL WEATHER SERVICE CHICAGO/ROMEOVILLE IL
700 PM CST THU DEC 18 2014

NOTE: "FAIR" INDICATES FEW OR NO CLOUDS BELOW 12,000 FEET WITH NO
SIGNIFICANT WEATHER AND/OR OBSTRUCTIONS TO VISIBILITY.

* THESE STATIONS ARE NOT UNDER NWS QUALITY CONTROL. THEY ALSO MAY NOT
  REPORT WEATHER SUCH AS PRECIPITATION OR FOG.

ILZ001-002-007-009-015-016-024-190200-
NORTHWEST ILLINOIS

CITY           SKY/WX    TMP DP  RH WIND       PRES   REMARKS
MOLINE         CLOUDY    26  18  71 N5        30.28S WCI  20
STERLING*      PTCLDY    21  16  79 CALM      30.28R
SAVANNA*       CLOUDY    20  17  85 CALM      30.28R
$$

ILZ003-004-008-010-011-017-018-190200-
NORTH CENTRAL ILLINOIS

CITY           SKY/WX    TMP DP  RH WIND       PRES   REMARKS
ROCKFORD       CLOUDY    26  18  71 CALM      30.28R
FREEPORT*      CLOUDY    25  18  76 NE5       30.28R WCI  19
ROCHELLE*      CLOUDY    25  19  77 CALM      30.27R
DE KALB*       CLOUDY    24  17  75 NW6       30.25S WCI  17
PERU*          CLOUDY    26  20  76 N3        30.28S
$$

ILZ005-006-012>014-019>023-190200-
NORTHEAST ILLINOIS

CITY           SKY/WX    TMP DP  RH WIND       PRES   REMARKS
CHICAGO-OHARE  CLOUDY    28  19  69 N7        30.24S WCI  21
CHICAGO-MIDWAY CLOUDY    30  20  66 W3        30.25S
AURORA         CLOUDY    27  19  72 W7        30.26S WCI  19
LANSING*       CLOUDY    27  20  75 W3        30.26S
JOLIET*        CLOUDY    25  19  76 W3        30.27R
WAUKEGAN       CLOUDY    27  23  85 CALM      30.25R
DUPAGE AIRPORT CLOUDY    27  19  72 NW6       30.24S WCI  20
KANKAKEE*      CLOUDY    26  20  78 W5        30.27S WCI  21
WHEELING       CLOUDY    28  19  69 N5        30.27R WCI  23
MORRIS*        CLOUDY    25  22  88 W7        30.26S WCI  17
ROMEOVILLE*    CLOUDY    25  20  80 W6        30.26S WCI  18
NORTHERLY ISL    N/A     29  21  72 NE3         N/A
$$

LMZ740>746-190200-
SOUTHERN LAKE MICHIGAN

STATION/POSITION SKY/WX   TEMP    WIND        PRES    VSBY  WAVE
                          AIR SEA DIR/SP/G                  HT/PER
                          (F)     (DEG/KT/KT) (MB)    (MI)  (FT/S)
WAUKEGAN HARBOR            28     320/  5/  7   N/A
HARRISON CRIB              28     340/  6/  8   N/A
BURNHAM HARBOR             29      50/  6       N/A
CALUMET HARBOR             27     180/  5/  5 1023.3F
$$

ILZ025>027-034>036-040-047-049-050-058-095>099-190200-
WEST-CENTRAL ILLINOIS

CITY           SKY/WX    TMP DP  RH WIND       PRES   REMARKS
QUINCY         CLOUDY    28  23  81 NE6       30.26S WCI  22
GALESBURG*     CLOUDY    27  22  80 CALM      30.27R
MACOMB*        CLOUDY    29  23  81 NE5       30.29S WCI  23
JACKSONVILLE*  CLOUDY    31  27  84 CALM      30.27S
PITTSFIELD*    CLOUDY    30  27  87 CALM      30.28S
$$

ILZ028>032-037-038-041>044-048-051>054-059>061-190200-
CENTRAL ILLINOIS

CITY           SKY/WX    TMP DP  RH WIND       PRES   REMARKS
PONTIAC        CLOUDY    27  23  86 N5        30.29R WCI  21
BLOOMINGTON    CLEAR     25  20  81 CALM      30.27R
DECATUR        CLOUDY    29  23  78 N6        30.27R WCI  23
PEORIA         PTCLDY    25  18  74 CALM      30.28R
LACON*         PTCLDY    23  19  84 CALM      30.28S
LINCOLN*       CLOUDY    28  24  82 CALM      30.29S
SPRINGFIELD    CLOUDY    30  24  78 N5        30.28R WCI  25
TAYLORVILLE    CLOUDY    30  25  80 CALM      30.27S
$$

ILZ033-039-045-046-055>057-062-063-190200-
EAST-CENTRAL ILLINOIS

CITY           SKY/WX    TMP DP  RH WIND       PRES   REMARKS
CHAMPAIGN      CLOUDY    28  23  81 NW5       30.26R WCI  23
DANVILLE*      CLOUDY    28  23  84 CALM      30.23S
RANTOUL*       CLOUDY    29  23  78 NW3       30.26S
MATTOON        CLOUDY    28  22  78 N6        30.25R WCI  22
PARIS*         CLOUDY    28  25  86 CALM      30.27S
$$

ILZ079-100>102-190200-
SOUTHWEST ILLINOIS

CITY           SKY/WX    TMP DP  RH WIND       PRES   REMARKS
ALTON          CLOUDY    32  27  80 N8        30.27R WCI  25
BELLEVILLE     CLOUDY    33  27  78 NE5       30.27R WCI  29
CAHOKIA*       CLOUDY    35  29  78 NE3       30.27R
SPARTA*        CLOUDY    33  30  89 CALM      30.26S
$$

ILZ064>066-069>071-074>076-080>082-084>086-088>090-092>094-190200-
SOUTH-CENTRAL ILLINOIS

CITY           SKY/WX    TMP DP  RH WIND       PRES   REMARKS
CARBONDALE     CLOUDY    34  29  82 CALM      30.26R
CAIRO*         CLOUDY    38  34  85 NE3       30.26R
EFFINGHAM*     CLOUDY    31  22  70 CALM      30.29R
MARION         CLOUDY    34  30  86 N3        30.27R
MT. VERNON     CLOUDY    32  23  69 NE3       30.27R
CENTRALIA*     CLOUDY    32  25  74 NE3       30.27R
SALEM*         CLOUDY    33  26  77 NE3       30.27R
METROPOLIS*    CLOUDY    36  34  94 CALM      30.25R
$$

ILZ067-068-072-073-078-083-087-091-190200-
SOUTHEAST ILLINOIS

CITY           SKY/WX    TMP DP  RH WIND       PRES   REMARKS
LAWRENCEVILLE  CLOUDY    31  24  75 N6        30.28R WCI  25
FLORA*         CLEAR     31  25  78 N3        30.27S
FAIRFIELD*     CLOUDY    32  26  78 NE3       30.26S
HARRISBURG*    CLOUDY    33  28  82 CALM      30.28R
ROBINSON*      CLOUDY    29  25  84 N3        30.28S
CARMI*         CLOUDY    34  30  84 N6        30.27R WCI  29
$$

ABBREVIATIONS USED IN REMARKS
   TC - TEMPERATURE IN CELSIUS
  WCI - WIND CHILL INDEX
   HX - HEAT INDEX
  VSB - VISIBILITY
$$




USA.gov is the U.S. government's official web portal to all federal, state and local government web resources and services.